CAPE
1893 1872 1117 768 493 425 448 651 1118 1454 1334 1136 1069 989 906 1048 1034 1022 1089 1088 1321 1367 1285 1025 989 1133 1357 1200 1078 1155 1184 1115 1125 1124 1264 1343 1249 1001 765 605 568 772 623
1966 2004 1154 849 618 497 482 578 803 1354 1550 1445 1281 1140 1080 1178 1149 1130 1138 1056 1088 1299 1175 918 954 1122 1302 1035 1039 1039 1014 887 942 1125 1269 1286 1218 1098 869 579 646 666 638
1921 2071 1785 1256 1045 852 680 650 748 1085 1595 1701 1507 1363 1284 1420 1402 1346 1204 1011 1023 1182 1114 1027 1009 1094 1048 935 897 947 975 1033 1159 1151 1084 1042 1011 1055 784 666 596 362 507
344 214 342 1257 1530 1314 1232 1065 1022 1040 1212 1650 1735 1621 1632 1678 1622 1515 1273 984 937 1045 1140 1172 1213 1166 919 888 926 901 978 1020 1140 914 1036 934 835 913 820 640 537 349 336
0 0 0 68 603 1706 1563 1453 1398 1287 1189 1107 1530 1816 1892 1872 1786 1668 1377 1092 1005 1097 1300 1435 1412 1174 824 858 942 898 889 864 747 702 1057 1024 828 868 853 804 356 295 129
0 0 0 0 0 143 1315 1849 1676 1454 1164 1291 1142 1134 1323 1387 1407 1444 1303 1129 1001 1210 1490 1716 1545 1009 776 760 843 741 625 534 429 1006 1181 950 912 764 960 628 701 533 429
0 0 0 0 0 0 9 274 1116 1745 1571 1311 1343 1412 1102 1053 1192 1156 1074 1061 1112 1417 1770 1827 1552 888 793 606 599 413 314 511 759 925 915 956 923 777 1040 683 641 408 349
0 0 0 0 0 0 0 0 0 254 1378 1607 1427 1307 1367 1371 1334 1303 1442 1451 1441 1579 1749 1721 1403 867 797 697 544 434 440 342 558 897 881 983 973 715 1191 775 599 374 220
0 0 0 0 0 0 0 0 0 0 17 550 1316 1388 1311 1207 1211 1437 1337 1264 1397 1548 1676 1707 1318 811 687 680 662 574 482 386 588 786 861 895 791 658 1295 886 539 413 209
0 0 0 0 0 0 0 0 0 0 0 0 1 300 1045 1170 1215 1182 1208 1256 1263 1381 1529 1569 1306 830 623 544 527 548 443 303 527 780 745 906 716 624 1359 1067 610 427 202
0 0 0 0 0 0 0 0 0 0 0 0 0 0 181 1487 1657 1488 1493 1386 1409 1177 1356 1467 1303 883 589 487 410 383 317 437 672 722 546 738 637 867 1398 1156 707 332 43
0 0 0 0 0 0 0 0 0 0 0 0 0 0 0 14 204 1418 1348 1195 1099 1007 1026 1282 1299 1005 547 582 416 284 397 293 550 621 465 626 481 793 1279 1204 697 454 226
0 0 0 0 0 0 0 0 0 0 0 0 0 0 0 0 0 0 349 1388 1566 1331 1334 1201 1273 1194 920 646 316 368 384 371 437 421 490 498 418 650 848 1229 725 568 369
0 0 0 0 0 0 0 0 0 0 0 0 0 0 0 0 0 0 0 0 266 1268 1509 1435 1245 1282 1093 837 621 404 458 377 276 287 483 293 188 417 805 1377 955 682 459
0 0 0 0 0 0 0 0 0 0 0 0 0 0 0 0 0 0 0 0 0 0 682 1235 1248 1313 1170 1007 788 586 384 338 279 179 379 367 148 195 381 757 995 825 635
0 0 0 0 0 0 0 0 0 0 0 0 0 0 0 0 0 0 0 0 0 0 0 0 664 1162 1305 1052 880 656 458 230 166 178 234 525 298 134 221 301 600 724 812
0 0 0 0 0 0 0 0 0 0 0 0 0 0 0 0 0 0 0 0 0 0 0 0 0 822 987 1010 944 764 554 392 178 117 145 241 484 138 125 165 357 449 531
0 0 0 0 0 0 0 0 0 0 0 0 0 0 0 0 0 0 0 0 0 0 0 0 0 32 777 947 724 759 640 417 243 184 121 131 296 516 172 65 117 357 259
0 0 0 0 0 0 0 0 0 0 0 0 0 0 0 0 0 0 0 0 2 0 0 0 0 8 364 512 919 643 708 532 350 170 139 80 149 367 470 254 41 99 127
0 0 0 0 0 0 0 0 0 0 0 0 0 0 0 0 2 3 3 2 0 1 3 5 2 9 3 40 400 411 593 671 569 269 166 125 88 287 483 375 312 103 55
0 0 0 0 0 0 0 0 0 0 0 0 0 0 0 0 2 7 5 1 0 2 4 2 1 2 6 1 128 212 240 454 707 553 260 219 166 98 394 491 468 467 151
0 0 0 0 0 0 0 0 0 0 0 0 0 0 0 0 1 3 6 9 10 4 4 2 2 3 1 6 18 208 186 306 333 623 478 318 297 266 198 485 566 468 429
0 0 0 0 0 0 0 0 0 0 0 0 0 0 0 0 0 1 6 6 5 4 3 4 3 2 4 2 25 124 63 21 198 304 376 396 365 502 468 380 592 573 585
0 0 0 0 0 0 0 0 0 0 0 0 0 0 0 0 0 1 3 3 2 5 2 1 4 4 5 5 3 9 170 176 242 98 353 346 322 483 620 729 581 648 519
0 0 0 0 0 0 0 0 0 0 0 0 0 0 0 0 2 2 2 4 2 5 5 3 2 2 3 4 5 5 9 334 152 113 124 408 358 370 499 838 730 758 674
0 0 0 0 0 0 0 0 1 1 0 0 0 0 0 0 0 0 1 1 1 4 5 3 2 4 3 3 4 4 5 14 222 91 160 106 150 301 387 560 806 840 738
CIN
-1 -17 -169 -205 -232 -225 -211 -161 -116 -90 -97 -111 -115 -116 -112 -91 -80 -78 -72 -68 -43 -27 -26 -48 -50 -42 -27 -41 -50 -50 -45 -47 -38 -28 -11 -4 -9 -29 -50 -49 -29 -3 -29
-12 -12 -121 -170 -207 -222 -215 -190 -138 -91 -81 -89 -97 -105 -103 -90 -81 -79 -72 -76 -65 -38 -38 -60 -58 -51 -41 -59 -61 -58 -61 -65 -55 -31 -16 -11 -14 -21 -38 -45 -23 -20 -23
-2 0 -9 -89 -135 -157 -191 -180 -140 -96 -71 -69 -83 -90 -90 -78 -73 -70 -75 -83 -76 -54 -52 -54 -56 -59 -62 -72 -78 -66 -59 -48 -32 -31 -33 -1 -1 -22 -39 -38 -32 -38 -23
-141 -425 -355 -94 -39 -92 -97 -116 -100 -86 -75 -57 -53 -64 -66 -58 -55 -56 -69 -87 -83 -71 -61 -54 -46 -57 -73 -76 -69 -74 -60 -52 -31 -40 -8 -1 -1 -31 -27 -34 -30 -33 -31
0 0 0 -197 -235 -21 -39 -54 -54 -59 -62 -68 -43 -34 -34 -32 -41 -42 -55 -75 -79 -62 -46 -39 -36 -55 -85 -75 -66 -67 -71 -66 -65 -45 -1 -1 0 -17 -19 -15 -34 -32 -36
0 0 0 0 0 -361 -70 -12 -18 -56 -83 -51 -51 -53 -50 -49 -54 -49 -53 -67 -79 -56 -32 -18 -28 -73 -91 -84 -72 -78 -91 -97 -91 0 -1 -2 -1 -22 -14 -18 -2 -11 -19
0 0 0 0 0 0 -301 -288 -95 -12 -30 -61 -45 -23 -43 -50 -46 -50 -58 -61 -67 -43 -15 -6 -21 -75 -89 -104 -99 -112 -122 -89 -31 -1 0 -1 -1 -19 -9 -20 -10 -21 -20
0 0 0 0 0 0 0 0 0 -282 -42 -21 -42 -39 -22 -19 -27 -29 -25 -26 -31 -33 -21 -16 -28 -68 -78 -90 -102 -111 -110 -112 -41 -1 0 -1 -12 -23 -2 -15 -15 -21 -26
0 0 0 0 0 0 0 0 0 0 -112 -170 -54 -45 -38 -25 -19 -17 -29 -35 -35 -32 -24 -15 -31 -82 -85 -83 -79 -88 -99 -100 -37 -1 -1 -1 -28 -34 0 -11 -23 -23 -28
0 0 0 0 0 0 0 0 0 0 0 0 -255 -232 -72 -47 -32 -22 -22 -28 -35 -40 -31 -21 -25 -63 -91 -96 -90 -79 -85 -111 -49 0 -2 -1 -34 -40 0 -3 -17 -21 -32
0 0 0 0 0 0 0 0 0 0 0 0 0 0 -226 -13 0 -1 -1 -3 -10 -25 -23 -23 -32 -53 -77 -83 -106 -98 -97 -36 -1 -1 -1 -18 -42 -34 0 -2 -15 -33 -83
0 0 0 0 0 0 0 0 0 0 0 0 0 0 0 -49 -227 -3 -9 -18 -20 -27 -30 -25 -23 -24 -67 -32 -28 -106 -75 -40 -2 -1 -1 -28 -58 -40 -4 -2 -17 -24 -35
0 0 0 0 0 0 0 0 0 0 0 0 0 0 0 0 0 0 -137 -1 0 -8 -1 -7 -9 -4 0 -9 -16 -7 -35 -46 -15 -1 -2 -41 -72 -51 -23 -2 -18 -21 -22
0 0 0 0 0 0 0 0 0 0 0 0 0 0 0 0 0 0 0 0 -61 0 0 0 -5 -1 -1 -1 -11 -23 -20 -27 -30 -18 -1 -52 -82 -66 -34 -2 -9 -18 -23
0 0 0 0 0 0 0 0 0 0 0 0 0 0 0 0 0 0 0 0 0 0 -45 -1 -3 -2 -1 -1 -1 -6 -37 -31 -42 -42 -6 -39 -89 -76 -55 -21 -12 -12 -16
0 0 0 0 0 0 0 0 0 0 0 0 0 0 0 0 0 0 0 0 0 0 0 0 -26 -1 -1 -1 -1 -4 -18 -55 -56 -39 -36 -8 -67 -96 -71 -52 -26 -18 -9
0 0 0 0 0 0 0 0 0 0 0 0 0 0 0 0 0 0 0 0 0 0 0 0 0 0 0 -3 -2 -1 -11 -31 -62 -74 -56 -15 -21 -87 -89 -74 -47 -33 -19
0 0 0 0 0 0 0 0 0 0 0 0 0 0 0 0 0 0 0 0 0 -1 0 0 0 -4 -1 0 -10 -4 -3 -73 -53 -62 -51 -37 -4 -2 -73 -87 -69 -48 -39
0 0 0 0 0 0 0 0 0 0 0 0 0 0 0 0 0 0 0 0 0 -1 -1 -1 0 0 -30 -2 0 -2 -2 -58 -55 -92 -57 -35 -25 -7 -2 -39 -87 -66 -55
0 0 0 0 0 0 0 0 0 0 0 0 0 0 0 0 -1 0 0 -1 0 -1 0 -1 -1 0 0 -61 0 0 0 -1 -19 -44 -46 -13 -20 -22 -11 -2 -39 -57 -84
0 0 0 0 0 0 0 0 0 0 0 0 0 0 0 0 0 0 -1 -1 0 0 0 0 0 0 0 0 -5 -1 0 -4 -2 0 -3 -2 -2 -16 -7 -7 -1 -5 -37
0 0 0 0 0 0 0 0 0 0 0 0 0 0 0 0 -1 0 0 0 -1 0 0 0 0 0 0 0 -73 -3 -5 0 0 -1 -3 -1 -2 -3 -6 -9 -2 -1 -2
0 0 0 0 0 0 0 0 0 0 0 0 0 0 0 0 0 0 0 0 0 0 0 0 0 0 0 -1 -1 -31 -20 -15 -2 -1 -3 -10 -6 -1 -1 -3 -5 -3 0
0 0 0 0 0 0 0 0 0 0 0 0 0 0 0 0 0 0 0 0 0 0 0 0 0 0 0 0 0 -4 -10 -4 0 -2 -1 -18 -10 -1 -11 -1 -1 -4 -3
0 0 0 0 0 0 0 0 0 0 0 0 -1 0 0 -1 0 0 0 0 0 0 0 0 0 0 0 0 0 0 0 -4 -5 -6 -1 0 -6 -1 0 -1 0 -1 -12
0 0 0 0 0 0 -1 0 -1 -1 -1 -1 -1 -1 0 0 0 -1 0 -1 -1 0 0 0 0 0 0 0 0 0 0 0 0 -14 -6 -24 -10 -1 -11 0 0 0 0
Wind_Speed
18 14 13 14 14 15 16 17 17 15 15 14 15 16 17 17 18 17 17 16 15 14 14 15 15 15 15 15 15 15 15 16 16 16 17 17 17 17 17 17 17 17 17
18 15 14 14 14 14 14 15 15 14 13 13 13 14 15 16 16 16 15 15 14 14 14 14 15 14 14 14 14 14 15 15 15 16 16 16 16 16 16 16 15 17 17
20 18 17 17 16 15 15 15 14 15 13 12 12 11 12 13 13 13 14 14 14 13 13 14 14 14 14 13 13 13 14 14 14 15 14 14 15 15 15 15 16 16 17
21 20 21 20 19 18 17 17 17 16 14 13 13 11 11 11 11 11 11 12 12 12 12 12 13 13 13 13 12 12 12 12 13 12 12 12 13 13 14 14 15 15 16
21 22 22 22 23 21 19 18 18 18 18 16 14 13 12 11 10 10 9 9 10 10 10 11 12 12 12 11 11 11 11 11 11 10 12 11 11 12 12 13 14 14 15
21 22 23 24 23 23 23 21 19 18 17 17 16 15 14 11 10 9 8 8 8 8 9 10 10 10 10 10 10 10 10 10 9 9 10 11 10 11 11 12 12 13 14
21 23 24 25 25 24 24 25 24 21 19 18 19 18 14 12 11 10 9 8 7 7 8 10 9 9 9 8 8 9 10 9 8 11 9 9 9 9 9 10 10 12 13
21 22 24 25 26 26 26 26 25 25 23 21 19 20 20 16 13 11 10 9 8 7 8 8 8 7 7 7 7 7 9 9 10 13 11 8 9 8 7 8 9 10 12
22 23 24 26 26 26 27 27 27 26 25 25 22 22 21 20 18 15 13 12 11 10 10 9 9 7 6 6 6 6 7 9 13 15 14 7 7 6 5 6 7 8 10
23 24 26 27 27 28 27 28 27 27 26 26 25 25 27 24 17 15 16 15 14 13 13 12 12 10 8 7 6 7 7 8 7 14 15 11 8 4 4 4 4 6 7
24 25 27 28 28 28 27 27 27 27 27 27 27 28 27 26 23 21 18 16 15 15 16 15 16 14 12 11 9 9 9 7 6 12 14 10 9 4 2 2 3 4 5
26 27 28 28 29 29 28 28 27 27 27 27 28 29 28 29 30 29 26 24 21 18 15 17 19 20 17 15 12 10 10 8 11 16 14 10 7 4 1 0 1 2 3
25 26 27 28 29 29 29 29 28 28 28 28 29 30 31 31 30 31 31 30 24 21 19 18 19 18 18 18 17 13 10 9 10 11 13 11 8 5 3 2 2 2 2
25 26 28 29 29 30 29 29 29 29 30 30 31 31 32 32 33 32 32 33 33 29 25 24 23 21 20 19 19 19 15 14 12 12 13 10 9 6 5 4 4 4 4
25 26 28 29 30 30 29 30 29 30 31 32 32 32 33 34 34 35 35 34 34 34 33 27 27 26 23 22 21 21 20 18 17 16 15 10 9 8 7 6 6 6 6
25 27 28 29 30 29 29 30 29 30 31 31 32 33 34 35 35 36 36 36 35 34 35 35 33 26 26 24 22 22 23 24 20 18 18 16 13 11 9 9 7 7 8
25 27 29 29 30 29 30 29 29 30 31 31 32 33 34 36 37 38 37 37 37 37 39 39 38 33 30 28 26 23 22 22 27 25 21 22 16 15 13 11 10 9 9
25 27 28 28 29 30 30 29 30 31 31 32 32 33 36 36 36 37 37 36 37 39 38 38 37 39 32 30 31 35 22 25 23 32 27 23 23 18 16 15 13 12 11
25 27 28 28 29 30 30 29 30 30 30 32 32 34 37 36 37 37 37 37 40 39 39 39 38 36 35 31 31 33 32 28 26 28 36 29 25 24 22 15 17 15 14
25 26 27 28 29 30 29 29 29 30 30 32 33 36 37 37 38 38 37 38 39 39 39 38 41 40 39 37 33 33 33 33 33 27 27 35 29 26 24 26 17 18 16
25 26 27 29 30 30 30 31 32 33 32 33 34 37 38 39 39 39 39 39 40 42 43 40 41 42 40 38 39 38 38 37 37 34 33 28 33 29 26 25 26 19 18
25 27 27 29 30 30 31 31 32 32 31 33 35 37 39 40 41 40 42 43 43 44 44 44 43 42 42 37 39 35 39 36 37 34 36 32 36 33 31 27 26 27 23
26 26 27 28 29 30 32 32 32 31 32 35 37 38 40 40 41 41 42 44 45 45 45 45 44 44 45 41 39 35 39 44 38 35 37 36 37 40 36 32 29 30 30
24 25 26 27 29 30 31 32 33 34 35 36 37 38 39 40 42 42 43 45 45 45 46 46 44 45 44 44 43 41 43 39 34 39 32 39 35 41 42 40 33 33 33
23 24 25 27 29 30 31 31 32 33 34 35 36 38 39 39 40 42 44 45 45 45 46 47 47 46 44 45 44 43 45 43 47 47 47 38 37 40 41 46 41 37 35
23 24 25 27 28 30 30 31 32 33 34 35 37 37 39 39 40 42 45 45 45 46 46 46 45 45 46 46 44 42 43 43 41 44 45 34 36 31 36 48 46 43 40
Wind_Direction
14 30 36 35 37 40 35 31 33 49 66 58 64 68 71 73 77 79 78 80 70 57 45 42 40 38 42 54 59 58 59 58 63 62 65 62 65 65 65 69 81 67 72
19 31 33 34 34 34 29 26 28 34 47 36 46 61 67 71 73 74 77 80 75 54 35 29 31 35 43 50 50 53 56 62 62 66 72 68 62 65 67 76 92 71 78
24 29 19 12 16 21 17 13 17 19 28 29 27 45 56 61 64 68 75 78 77 67 40 29 25 29 37 44 48 51 56 57 62 70 90 79 66 65 66 69 63 80 84
1 4 357 357 360 360 359 355 355 360 10 18 1 17 32 42 51 58 68 76 74 71 57 35 25 24 32 37 48 50 51 52 61 72 93 73 65 69 72 73 75 84 87
0 2 355 353 350 352 352 349 345 344 342 353 353 350 1 17 30 42 56 62 67 69 52 42 32 26 25 35 40 47 45 48 55 83 42 64 71 65 74 82 85 89 96
360 356 354 351 348 342 342 341 343 341 341 338 338 338 344 357 14 27 39 43 45 50 52 35 29 32 33 33 32 31 31 35 57 53 40 28 56 55 74 85 79 90 100
358 355 357 353 347 341 335 333 332 335 332 331 325 326 336 341 348 355 4 16 24 28 28 26 26 26 33 40 34 23 10 18 38 10 28 33 39 43 62 77 79 95 105
354 351 353 352 349 346 340 333 329 328 326 325 323 317 316 324 330 336 341 348 356 2 7 14 16 21 25 25 27 23 6 1 358 345 356 15 9 33 55 67 83 92 105
352 345 343 343 339 339 341 334 331 329 328 322 319 316 315 315 316 320 322 326 329 334 339 344 351 359 3 7 4 5 5 351 336 329 334 1 7 39 49 63 72 89 98
347 342 338 340 337 335 337 335 335 331 329 326 324 318 308 310 317 316 314 313 314 317 320 323 327 331 337 342 343 344 345 344 342 330 327 333 343 20 53 72 72 90 94
336 335 335 335 335 333 336 337 336 333 332 329 325 318 314 314 314 312 312 309 308 307 309 310 312 315 319 321 322 324 328 332 336 329 324 326 330 358 55 87 99 106 101
329 331 332 334 334 333 334 334 337 338 335 333 328 323 320 312 309 308 308 306 304 302 299 301 303 305 307 310 314 308 312 316 319 316 318 322 321 325 337 42 144 139 128
333 334 334 334 335 335 334 332 333 332 332 330 327 324 319 317 315 310 308 307 307 303 298 296 296 295 297 299 301 305 302 301 309 313 311 309 308 303 298 267 199 190 178
332 334 334 335 334 334 334 334 333 331 329 328 326 324 320 318 314 312 309 306 305 304 299 297 295 294 292 290 290 294 294 297 300 304 307 298 293 288 282 275 232 213 213
334 336 336 337 336 335 336 335 334 331 329 326 326 326 324 319 315 312 309 307 304 303 302 298 292 289 286 284 284 284 286 287 290 295 299 291 276 273 263 265 242 226 225
335 338 338 339 340 339 337 336 337 335 331 330 329 327 325 322 318 315 312 308 306 304 300 299 298 288 283 281 279 277 280 282 283 284 288 291 278 267 255 256 240 228 232
336 336 337 337 338 339 338 338 338 337 336 335 333 331 329 324 320 317 313 309 308 305 301 297 295 290 286 283 277 274 274 276 278 279 280 283 282 267 255 249 250 237 236
336 338 340 340 340 340 339 339 338 338 337 336 336 334 331 328 326 322 319 316 313 307 303 299 294 294 284 279 280 278 272 275 272 273 275 275 276 276 261 251 242 238 231
336 336 338 342 342 342 341 341 340 339 338 336 336 334 332 331 328 324 321 317 314 311 307 301 296 292 292 279 276 275 274 271 270 269 269 269 268 271 272 257 237 236 230
335 336 337 339 341 342 344 345 345 344 342 340 338 336 334 333 331 329 324 320 317 314 311 307 300 293 288 285 282 276 270 270 272 268 255 265 264 263 264 270 262 247 230
334 335 335 335 338 340 339 339 340 340 343 343 342 339 337 334 332 328 325 321 318 312 309 308 301 296 288 286 279 274 275 272 268 267 263 259 262 261 260 260 266 263 250
332 333 333 334 336 338 338 339 339 339 341 342 342 342 341 339 335 331 325 319 317 313 309 307 304 297 290 285 281 276 275 274 268 263 262 259 260 261 260 256 257 262 263
330 332 334 335 336 337 337 337 337 339 339 339 339 338 339 341 339 336 329 322 317 314 310 307 302 296 291 286 278 273 273 272 273 267 258 257 256 257 258 257 254 258 259
330 334 336 337 338 339 340 339 339 338 336 337 337 337 338 338 338 338 333 327 321 316 312 309 303 297 291 285 283 273 267 274 275 269 264 259 255 255 254 255 255 255 256
333 334 336 337 339 341 341 342 340 338 338 338 338 337 338 339 340 341 338 332 326 320 314 308 302 297 290 285 279 279 276 268 266 270 268 267 261 257 253 251 253 255 254
333 334 335 337 339 342 342 342 341 339 339 338 339 339 340 341 341 342 340 338 331 325 319 313 306 298 290 283 279 276 276 274 269 262 265 264 274 252 253 252 252 254 254